TimeMDT,TemperatureF,Dew PointF,Humidity,Sea Level PressureIn,VisibilityMPH,Wind Direction,Wind SpeedMPH,Gust SpeedMPH,PrecipitationIn,Events,Conditions,WindDirDegrees,DateUTC
12:15 AM,-9999,-9999,N/A,30.17,-9999.0,West,19.6,28.8,N/A,,Overcast,280,2013-09-28 06:15:00
12:35 AM,-9999,-9999,N/A,30.19,-9999.0,West,18.4,32.2,N/A,,Overcast,270,2013-09-28 06:35:00
12:55 AM,-9999,-9999,N/A,30.18,-9999.0,West,25.3,36.8,N/A,,Overcast,270,2013-09-28 06:55:00
1:15 AM,-9999,-9999,N/A,30.19,-9999.0,West,21.9,32.2,N/A,,Overcast,280,2013-09-28 07:15:00
1:35 AM,-9999,-9999,N/A,30.20,-9999.0,West,17.3,32.2,N/A,,Overcast,280,2013-09-28 07:35:00
1:55 AM,-9999,-9999,N/A,30.20,-9999.0,West,18.4,31.1,N/A,,Overcast,280,2013-09-28 07:55:00
2:15 AM,-9999,-9999,N/A,30.21,-9999.0,West,18.4,29.9,N/A,,Overcast,280,2013-09-28 08:15:00
2:35 AM,-9999,-9999,N/A,30.22,-9999.0,West,20.7,29.9,N/A,,Overcast,270,2013-09-28 08:35:00
2:55 AM,-9999,-9999,N/A,30.21,-9999.0,West,21.9,32.2,N/A,,Overcast,280,2013-09-28 08:55:00
3:15 AM,-9999,-9999,N/A,30.22,-9999.0,West,18.4,29.9,N/A,,Overcast,270,2013-09-28 09:15:00
3:35 AM,-9999,-9999,N/A,30.22,-9999.0,West,19.6,31.1,N/A,,Overcast,270,2013-09-28 09:35:00
3:55 AM,-9999,-9999,N/A,30.23,-9999.0,West,18.4,27.6,N/A,,Overcast,280,2013-09-28 09:55:00
4:15 AM,-9999,-9999,N/A,30.24,-9999.0,West,16.1,26.5,N/A,,Overcast,270,2013-09-28 10:15:00
4:35 AM,-9999,-9999,N/A,30.25,-9999.0,West,15.0,23.0,N/A,,Overcast,270,2013-09-28 10:35:00
4:55 AM,-9999,-9999,N/A,30.25,-9999.0,West,13.8,21.9,N/A,,Overcast,270,2013-09-28 10:55:00
5:15 AM,-9999,-9999,N/A,30.26,-9999.0,West,15.0,23.0,N/A,,Overcast,270,2013-09-28 11:15:00
5:35 AM,-9999,-9999,N/A,30.26,-9999.0,West,15.0,21.9,N/A,,Unknown,270,2013-09-28 11:35:00
5:55 AM,-9999,-9999,N/A,30.28,1.0,West,13.8,20.7,N/A,,Overcast,280,2013-09-28 11:55:00
6:15 AM,-9999,-9999,N/A,30.29,1.2,West,13.8,19.6,N/A,,Overcast,270,2013-09-28 12:15:00
6:35 AM,-9999,-9999,N/A,30.30,1.5,West,11.5,17.3,N/A,,Overcast,270,2013-09-28 12:35:00
6:55 AM,-9999,-9999,N/A,30.30,1.2,West,11.5,17.3,N/A,,Overcast,270,2013-09-28 12:55:00
7:15 AM,-9999,-9999,N/A,30.31,10.0,West,11.5,17.3,N/A,,Mostly Cloudy,260,2013-09-28 13:15:00
7:35 AM,-9999,-9999,N/A,30.32,10.0,West,9.2,17.3,N/A,,Scattered Clouds,260,2013-09-28 13:35:00
7:55 AM,-9999,-9999,N/A,30.32,10.0,WSW,10.4,17.3,N/A,,Clear,250,2013-09-28 13:55:00
8:15 AM,-9999,-9999,N/A,30.32,10.0,WSW,10.4,-,N/A,,Clear,250,2013-09-28 14:15:00
8:35 AM,-9999,-9999,N/A,30.32,10.0,WSW,8.1,17.3,N/A,,Clear,250,2013-09-28 14:35:00
8:55 AM,-9999,-9999,N/A,30.34,10.0,WSW,9.2,-,N/A,,Clear,240,2013-09-28 14:55:00
9:15 AM,-9999,-9999,N/A,30.34,10.0,WSW,10.4,-,N/A,,Clear,240,2013-09-28 15:15:00
9:35 AM,-9999,-9999,N/A,30.35,10.0,SW,5.8,-,N/A,,Clear,220,2013-09-28 15:35:00
9:55 AM,-9999,-9999,N/A,30.37,10.0,SSW,4.6,-,N/A,,Clear,200,2013-09-28 15:55:00
10:15 AM,-9999,-9999,N/A,30.38,10.0,SW,4.6,-,N/A,,Clear,220,2013-09-28 16:15:00
10:35 AM,-9999,-9999,N/A,30.38,10.0,SW,8.1,-,N/A,,Clear,230,2013-09-28 16:35:00
10:55 AM,28.4,23.0,80,30.38,10.0,WSW,9.2,-,N/A,,Clear,240,2013-09-28 16:55:00
11:15 AM,28.4,23.0,80,30.38,10.0,SW,6.9,-,N/A,,Clear,230,2013-09-28 17:15:00
11:35 AM,28.4,23.0,80,30.38,10.0,SW,5.8,-,N/A,,Clear,230,2013-09-28 17:35:00
11:55 AM,28.4,24.8,86,30.38,10.0,WSW,6.9,-,N/A,,Clear,240,2013-09-28 17:55:00
12:15 PM,30.2,26.6,86,30.38,10.0,SW,5.8,-,N/A,,Clear,230,2013-09-28 18:15:00
12:35 PM,30.2,26.6,86,30.38,10.0,WSW,8.1,-,N/A,,Clear,250,2013-09-28 18:35:00
12:55 PM,30.2,26.6,86,30.38,10.0,WSW,9.2,-,N/A,,Clear,240,2013-09-28 18:55:00
1:15 PM,32.0,26.6,80,30.38,10.0,West,8.1,-,N/A,,Clear,260,2013-09-28 19:15:00
1:35 PM,32.0,24.8,75,30.38,10.0,WSW,10.4,-,N/A,,Clear,250,2013-09-28 19:35:00
1:55 PM,32.0,26.6,80,30.38,10.0,West,8.1,-,N/A,,Clear,260,2013-09-28 19:55:00
2:15 PM,33.8,26.6,75,30.38,10.0,West,5.8,-,N/A,,Clear,270,2013-09-28 20:15:00
2:35 PM,33.8,26.6,75,30.38,10.0,West,9.2,-,N/A,,Clear,260,2013-09-28 20:35:00
2:55 PM,33.8,26.6,75,30.37,10.0,West,13.8,17.3,N/A,,Clear,270,2013-09-28 20:55:00
3:15 PM,33.8,26.6,75,30.38,10.0,West,9.2,-,N/A,,Clear,280,2013-09-28 21:15:00
3:35 PM,33.8,26.6,75,30.39,10.0,West,5.8,-,N/A,,Clear,270,2013-09-28 21:35:00
3:55 PM,35.6,26.6,70,30.39,10.0,West,9.2,-,N/A,,Clear,270,2013-09-28 21:55:00
4:15 PM,35.6,26.6,70,30.39,10.0,West,6.9,-,N/A,,Clear,260,2013-09-28 22:15:00
4:35 PM,35.6,28.4,75,30.39,10.0,WSW,6.9,-,N/A,,Clear,250,2013-09-28 22:35:00
4:55 PM,37.4,26.6,65,30.39,10.0,WSW,5.8,-,N/A,,Clear,240,2013-09-28 22:55:00
5:15 PM,37.4,26.6,65,30.39,10.0,SW,10.4,-,N/A,,Clear,230,2013-09-28 23:15:00
5:35 PM,37.4,28.4,70,30.39,10.0,WSW,9.2,-,N/A,,Clear,240,2013-09-28 23:35:00
5:55 PM,37.4,28.4,70,30.39,10.0,WSW,8.1,-,N/A,,Clear,250,2013-09-28 23:55:00
6:15 PM,37.4,28.4,70,30.39,10.0,WSW,8.1,-,N/A,,Clear,240,2013-09-29 00:15:00
6:35 PM,35.6,28.4,75,30.39,10.0,WSW,6.9,-,N/A,,Clear,240,2013-09-29 00:35:00
6:55 PM,35.6,28.4,75,30.39,10.0,WSW,12.7,-,N/A,,Clear,250,2013-09-29 00:55:00
7:15 PM,35.6,28.4,75,30.39,10.0,WSW,9.2,-,N/A,,Clear,250,2013-09-29 01:15:00
7:35 PM,35.6,28.4,75,30.39,10.0,WSW,9.2,-,N/A,,Clear,250,2013-09-29 01:35:00
7:55 PM,35.6,26.6,70,30.41,10.0,WSW,10.4,-,N/A,,Clear,240,2013-09-29 01:55:00
8:15 PM,35.6,26.6,70,30.41,10.0,SW,13.8,-,N/A,,Clear,230,2013-09-29 02:15:00
8:35 PM,35.6,23.0,60,30.41,10.0,SW,11.5,21.9,N/A,,Clear,230,2013-09-29 02:35:00
8:55 PM,35.6,23.0,60,30.41,10.0,WSW,16.1,23.0,N/A,,Clear,240,2013-09-29 02:55:00
9:15 PM,35.6,23.0,60,30.41,10.0,WSW,16.1,23.0,N/A,,Clear,240,2013-09-29 03:15:00
9:35 PM,35.6,23.0,60,30.40,10.0,WSW,17.3,24.2,N/A,,Clear,240,2013-09-29 03:35:00
9:55 PM,35.6,23.0,60,30.40,10.0,WSW,17.3,21.9,N/A,,Clear,240,2013-09-29 03:55:00
10:15 PM,35.6,21.2,56,30.40,10.0,SW,17.3,-,N/A,,Clear,230,2013-09-29 04:15:00
10:35 PM,35.6,19.4,52,30.40,10.0,SW,17.3,-,N/A,,Clear,230,2013-09-29 04:35:00
10:55 PM,35.6,19.4,52,30.39,10.0,SW,15.0,-,N/A,,Clear,220,2013-09-29 04:55:00
11:15 PM,35.6,17.6,48,30.39,10.0,SSW,16.1,-,N/A,,Clear,210,2013-09-29 05:15:00
11:35 PM,35.6,15.8,44,30.39,10.0,SSW,18.4,23.0,N/A,,Clear,210,2013-09-29 05:35:00
11:55 PM,35.6,17.6,48,30.39,10.0,SSW,17.3,20.7,N/A,,Clear,210,2013-09-29 05:55:00